This demonstration page uses our WeatherBlox Daily Observations layout. Learn more.

Left ArrowRight Arrow

39.29038, -76.61219

Hourly Observations for April 17, 2022

Temp ( °F °C ) Dew Point ( °F °C ) Humidity (%) Winds ( mph kmh ) Pressure ( in mb ) Visibility ( mi km ) Precip ( " mm )
12:54 am 00:54 Mostly Cloudy 56 13.3 44 6.7 65 65 NNE 6 9 29.94 1014 10 16 0.00 0.00
1:54 am 01:54 Mostly Cloudy 55 12.8 43 6.1 64 64 N 7 11 29.93 1014 10 16 0.00 0.00
2:54 am 02:54 Mostly Cloudy 54 12.2 38 3.3 55 55 N 8 13 29.94 1014 10 16 0.00 0.00
3:54 am 03:54 Mostly Cloudy 52 11.1 37 2.8 57 57 NNE 6 9 29.98 1015 10 16 0.00 0.00
4:54 am 04:54 Mostly Cloudy 52 11.1 37 2.8 57 57 NNW 6 9 30.02 1017 10 16 0.00 0.00
5:54 am 05:54 Partly Cloudy 49 9.4 29 -1.7 46 46 NNW 7 11 30.05 1018 10 16 0.00 0.00
6:54 am 06:54 Partly Cloudy 47 8.3 27 -2.8 46 46 WNW 6 9 30.09 1019 10 16 0.00 0.00
7:54 am 07:54 Partly Cloudy 50 10 26 -3.3 39 39 NW 12 19 30.13 1020 10 16 0.00 0.00
8:54 am 08:54 Mostly Sunny 51 10.6 26 -3.3 38 38 NW 13 20 30.14 1021 10 16 0.00 0.00
9:54 am 09:54 Partly Cloudy 53 11.7 26 -3.3 35 35 NW 15 24 30.16 1021 10 16 0.00 0.00
10:54 am 10:54 Partly Cloudy 54 12.2 25 -3.9 33 33 NNW 16 26 30.17 1022 10 16 0.00 0.00
11:54 am 11:54 Partly Cloudy 54 12.2 25 -3.9 33 33 WNW 21 33 30.18 1022 10 16 0.00 0.00
12:54 pm 12:54 Partly Cloudy 54 12.2 25 -3.9 33 33 WNW 22 35 30.18 1022 10 16 0.00 0.00
1:54 pm 13:54 Partly Cloudy 55 12.8 26 -3.3 33 33 WNW 10 17 30.19 1022 10 16 0.00 0.00
2:54 pm 14:54 Partly Cloudy 55 12.8 24 -4.4 30 30 NNW 15 24 30.19 1022 10 16 0.00 0.00
3:54 pm 15:54 Partly Cloudy 56 13.3 23 -5 28 28 NNW 15 24 30.19 1022 10 16 0.00 0.00
4:54 pm 16:54 Partly Cloudy 56 13.3 22 -5.6 27 27 N 12 19 30.20 1023 10 16 0.00 0.00
5:54 pm 17:54 Partly Cloudy 55 12.8 23 -5 29 29 NNW 10 17 30.22 1023 10 16 0.00 0.00
6:54 pm 18:54 Mostly Sunny 53 11.7 21 -6.1 28 28 N 8 13 30.23 1024 10 16 0.00 0.00
7:54 pm 19:54 Partly Cloudy 50 10 21 -6.1 32 32 N 6 9 30.26 1025 10 16 0.00 0.00
8:54 pm 20:54 Partly Cloudy 49 9.4 20 -6.7 32 32 NNE 9 15 30.28 1026 10 16 0.00 0.00
9:54 pm 21:54 Mostly Clear 48 8.9 20 -6.7 33 33 NE 12 19 30.30 1026 10 16 0.00 0.00
10:54 pm 22:54 Mostly Clear 47 8.3 19 -7.2 33 33 NE 13 20 30.31 1026 10 16 0.00 0.00
11:54 pm 23:54 Partly Cloudy 45 7.2 20 -6.7 37 37 ENE 9 15 30.32 1027 10 16 0.00 0.00

Powered by AerisWeather